Location: Laura�t
(43.9341°N, 0.2497°E)
Time: 23:57:47
(UTC+00:00)

Cosmos 1666 - Pass Details

Date: 03 March 2021
Orbit: 497 x 518 km, 82.5° (Epoch: 17 April)

Event Time Altitude Azimuth Distance (km) Brightness Sun altitude
Rises 20:02:49 0° 207° (SSW) 2,572 6.4 -24.5°
Reaches altitude 10° 20:05:03 10° 216° (SW) 1,695 5.5 -24.9°
Maximum altitude 20:08:28 35° 284° (WNW) 820 4.2 -25.5°
Drops below altitude 10° 20:11:57 10° 351° (N) 1,714 5.6 -26.1°
Sets 20:14:12 0° 1° (N) 2,605 6.5 -26.4°
